Meteo Giornale » Osservazioni meteo Gran Bretagna » Leconfield

ore: 18:50 - Osservazioni Meteo Leconfield
Lat. 53° 52' N Lon. 0° 26' W Alt. 6 metri s.l.m.

nuvoloso

19 °C

Nuvoloso

Temp. 24 Ore

11 °C

22 °C

Ovest/Sud-Ovest

11.1 Km/h

Dew point 12 °C

Umidità 63 %

Visibilità  10 Km

Il sole sorge alle ore 06:10

Il sole tramonta alle ore 19:52

Data e Ora Cielo e Fenomeni T °C DP °C Um. % Pres. hPa Vis. km Vento km/h
Oggi h: 18:50 nuvoloso Nuvoloso 19 12 63 1016 10 O/SO 11.1
Oggi h: 18:20 poco_nuvoloso Poco Nuvoloso 19 12 63 1016 10 O/SO 14.8
Oggi h: 17:50 molto_nuvoloso Molto Nuvoloso 20 12 59 1016 10 O/SO 20.3
Oggi h: 17:20 poco_nuvoloso Poco Nuvoloso 21 12 56 1016 10 O/SO 20.3
Oggi h: 16:50 poco_nuvoloso Poco Nuvoloso 21 12 56 1016 10 O/SO 20.3
Oggi h: 16:20 nuvoloso Nuvoloso 21 12 56 1016 10 O 16.7
Oggi h: 15:50 nuvoloso Nuvoloso 21 11 52 1016 10 O 22.2
Oggi h: 15:20 sereno Sereno 22 11 49 1016 10 O 18.5
Oggi h: 14:50 molto_nuvoloso Molto Nuvoloso 21 11 52 1016 10 O/SO 20.3
Oggi h: 14:20 molto_nuvoloso Molto Nuvoloso 21 10 49 1016 10 O 25.9
Oggi h: 13:50 molto_nuvoloso Molto Nuvoloso 22 11 49 1016 10 O 20.3
Oggi h: 13:20 coperto Coperto 21 12 56 1016 10 O 20.3
Oggi h: 12:50 poco_nuvoloso Poco Nuvoloso 21 10 49 1016 10 O/SO 20.3
Oggi h: 12:20 poco_nuvoloso Poco Nuvoloso 20 11 56 1016 10 O/SO 20.3
Oggi h: 11:50 sereno Sereno 20 11 56 1017 10 O 22.2
Oggi h: 11:20 sereno Sereno 19 10 55 1017 10 O 24
Oggi h: 10:50 sereno Sereno 19 10 55 1017 10 O 22.2
Oggi h: 10:20 sereno Sereno 18 11 63 1017 10 O/SO 20.3
Oggi h: 09:50 sereno Sereno 18 12 67 1017 10 O/SO 14.8
Oggi h: 09:20 poco_nuvoloso Poco Nuvoloso 17 12 72 1017 10 O/SO 16.7
Oggi h: 08:50 nuvoloso Nuvoloso 15 12 82 1017 10 SO 14.8
Oggi h: 08:20 coperto Coperto 15 12 82 1017 10 S/SO 13
Oggi h: 07:50 coperto Coperto 14 11 82 1017 10 SO 11.1
Oggi h: 07:20 coperto Coperto 14 11 82 1017 10 SO 13
Oggi h: 06:50 coperto Coperto 13 11 87 1016 10 SO 11.1
Oggi h: 06:20 coperto Coperto 12 11 93 1016 10 N 5.5
Oggi h: 05:50 molto_nuvoloso Molto Nuvoloso 11 11 100 1016 10 N 3.7
Oggi h: 05:20 nuvoloso Nuvoloso 11 10 93 1016 10 O/SO 7.4
Oggi h: 04:50 sereno Sereno 11 10 93 1016 10 O/SO 7.4
Oggi h: 04:20 sereno Sereno 11 10 93 1016 10 N 5.5
Oggi h: 03:50 sereno Sereno 12 10 87 1016 10 O 7.4
Oggi h: 03:20 sereno Sereno 12 10 87 1016 10 O 9.3
Oggi h: 02:50 sereno Sereno 13 10 81 1016 10 O 13
Oggi h: 02:20 sereno Sereno 12 10 87 1016 10 O 11.1
Oggi h: 01:50 poco_nuvoloso Poco Nuvoloso 13 10 81 1016 10 O 9.3
Oggi h: 01:20 poco_nuvoloso Poco Nuvoloso 12 10 87 1016 10 O 9.3
Oggi h: 00:50 coperto Coperto 13 10 81 1016 10 O 11.1
Oggi h: 00:20 coperto Coperto 13 10 81 1016 10 O 14.8
Ieri h: 23:50 molto_nuvoloso Molto Nuvoloso 14 10 76 1016 10 O/SO 11.1
Ieri h: 23:20 nuvoloso Nuvoloso 13 10 81 1015 10 O 11.1
Ieri h: 22:50 poco_nuvoloso Poco Nuvoloso 14 10 76 1015 10 O 11.1
Ieri h: 22:20 sereno Sereno 14 10 76 1015 10 O 11.1
Ieri h: 21:50 sereno Sereno 15 10 72 1015 10 O 14.8
Ieri h: 21:20 sereno Sereno 15 10 72 1015 10 O 13
Ieri h: 20:50 sereno Sereno 15 10 72 1014 10 O 18.5
Ieri h: 20:20 sereno Sereno 16 11 72 1014 10 O 18.5
Ieri h: 19:50 sereno Sereno 16 11 72 1013 10 O 18.5